Washington, PA

12:10 AM EST on December 16, 2019 (GMT -0500)
Washington County

Weather History for KAFJ - October, 2019

Change the Weather History Date:

Friday, October 18, 2019

  Actual Average Record
Temperature  
Mean Temperature 46 °F -  
Max Temperature 55 °F 58 °F 82 °F (2007)
Min Temperature 36 °F 38 °F 26 °F (2001)
Degree Days  
Heating Degree Days 19    
Moisture  
Dew Point 37 °F    
Average Humidity 78    
Maximum Humidity 97    
Minimum Humidity 51    
Precipitation  
Precipitation 0.00 in - - ()
Sea Level Pressure  
Sea Level Pressure 30.08 in    
Wind  
Wind Speed 3 mph ()    
Max Wind Speed 14 mph    
Max Gust Speed 22 mph    
Visibility 10.0 miles    
Events      
Averages and records for this station are not official NWS values.
T = Trace of Precipitation, MM = Missing Value Source: Averaged Metar Reports

Daily Weather History Graph

Daily Weather History Graph

Search for Another Location

Airport or City:

Astronomy

Oct. 18, 2019 Rise Set
Actual Time 7:34 AM EDT 6:37 PM EDT
Civil Twilight 7:07 AM EDT 7:04 PM EDT
Nautical Twilight 6:35 AM EDT 7:36 PM EDT
Astronomical Twilight 6:04 AM EDT 8:07 PM EDT
Moon 9:52 PM EDT (10/18) 12:06 PM EDT (10/18)
Length of Visible Light 11h 57m
Length of Day
11h 02m
Waning Gibbous, 79% of the Moon is Illuminated
Oct 18
Waning Gibbous
Oct 21
Last Quarter
Oct 27
New
Nov 4
First Quarter
Nov 12
Full

Hourly Weather History & Observations

Time (EDT) Temp. Windchill Dew Point Humidity Pressure Visibility Wind Dir Wind Speed Gust Speed Precip Events Conditions
12:56 AM 43.0 °F - 36.0 °F 76% 29.99 in 10.0 mi Calm Calm - N/A   Mostly Cloudy
1:56 AM 42.1 °F 37.7 °F 37.0 °F 82% 30.00 in 10.0 mi West 6.9 mph - N/A   Mostly Cloudy
2:56 AM 39.9 °F 35.8 °F 37.0 °F 89% 30.01 in 10.0 mi West 5.8 mph - N/A   Mostly Cloudy
3:56 AM 39.0 °F - 37.0 °F 93% 30.02 in 10.0 mi Calm Calm - N/A   Overcast
4:56 AM 39.0 °F - 37.0 °F 93% 30.03 in 10.0 mi Calm Calm - N/A   Mostly Cloudy
5:56 AM 37.9 °F 35.5 °F 37.0 °F 97% 30.05 in 10.0 mi WSW 3.5 mph - N/A   Overcast
6:56 AM 39.9 °F - 37.9 °F 93% 30.06 in 10.0 mi Calm Calm - N/A   Overcast
7:56 AM 41.0 °F - 39.0 °F 93% 30.07 in 10.0 mi Calm Calm - N/A   Overcast
8:56 AM 44.1 °F 40.8 °F 39.9 °F 85% 30.10 in 10.0 mi West 5.8 mph - N/A   Overcast
9:56 AM 45.0 °F 42.6 °F 41.0 °F 86% 30.12 in 10.0 mi WNW 4.6 mph - N/A   Mostly Cloudy
10:56 AM 48.0 °F - 35.1 °F 61% 30.12 in 10.0 mi NW 13.8 mph 21.9 mph N/A   Mostly Cloudy
11:56 AM 50.0 °F - 35.1 °F 57% 30.12 in 10.0 mi NNW 9.2 mph - N/A   Overcast
12:56 PM 52.0 °F - 37.0 °F 57% 30.11 in 10.0 mi NW 8.1 mph 19.6 mph N/A   Mostly Cloudy
1:56 PM 52.0 °F - 37.0 °F 57% 30.10 in 10.0 mi West 12.7 mph 16.1 mph N/A   Mostly Cloudy
2:56 PM 53.1 °F - 37.0 °F 55% 30.10 in 10.0 mi Variable 6.9 mph - N/A   Overcast
3:56 PM 55.0 °F - 37.9 °F 53% 30.09 in 10.0 mi SSW 5.8 mph - N/A   Scattered Clouds
4:56 PM 55.0 °F - 37.0 °F 51% 30.09 in 10.0 mi Calm Calm - N/A   Partly Cloudy
5:56 PM 53.1 °F - 37.0 °F 55% 30.09 in 10.0 mi Calm Calm - N/A   Clear
6:56 PM 46.9 °F - 39.0 °F 74% 30.08 in 10.0 mi Calm Calm - N/A   Clear
7:56 PM 42.1 °F - 39.0 °F 89% 30.10 in 10.0 mi Calm Calm - N/A   Clear
8:56 PM 39.9 °F - 37.9 °F 93% 30.10 in 10.0 mi Calm Calm - N/A   Clear
9:56 PM 39.0 °F - 37.0 °F 93% 30.11 in 10.0 mi Calm Calm - N/A   Clear
10:56 PM 37.0 °F - 36.0 °F 96% 30.10 in 10.0 mi Calm Calm - N/A   Clear
11:56 PM 36.0 °F - 35.1 °F 97% 30.09 in 10.0 mi Calm Calm - N/A   Clear